Find Tongxin Jishu Shiyan 2

NORAD ID: 41911 Int'l Des: 2017-001 Owner: CASC Country: CN operational
HEOCIRCULARGSO

当前视图

正在加载3D地球...

关于 Tongxin Jishu Shiyan 2

正在加载描述...

即将过境

Passes for default location (London). Set your location on the main map for personalized predictions.

高度历史

Loading altitude history...

两行轨道根数

1 41911U 17001A 26151.51440484 .00000006 00000-0 00000+0 0 9995
2 41911 0.7912 85.5525 0000802 359.2401 55.9368 1.00271909 34553
Epoch: May 31, 2026 • Age: 7 hours

当前状态

高度 35789.1 km
速度 3.07 km/s
星下点 0.30°N, 66.53°E
发射日期 Jan 5, 2017
运行时间 9.3 years
类型 other

技术详情

分类 Payload
质量 4000.00 kg
干质量 2500.00 kg
总质量 4000.00 kg
长度 5.00 m
直径 2.50 m
跨度 30.00 m
形状 Box+ 2 panels
制造商 SISE
平台类型 FY-4
阶段状态 In Orbit
所有者/国家 CASC/CN

Most Searched